[[{"header":{"parameterUnit":"m.s-1","parameterCategory":1,"la1":30.2991,"la2":30.254,"lo1":-89.0895,"lo2":-89.0444,"dy":0.0017,"dx":0.0017,"nx":28,"ny":28,"refTime":"2025-05-17T21:00:00:Z","depth":0,"parameterNumber":2,"parameterNumberName":"U-component_of_WINDS"},"data":[0,0,0,0,0,0,0,0,0,0,0,0,0,0,0,0,0,0,0,0,0,0,0,0,0,0,0,0,0,0,0,0,0,0,0,0,0,0,0,0,0,0,0,0,0,0,0,0,0,0,0,0,0,0,0,0,0,0,1.0579,1.058,0,1.0632,1.0632,1.0633,1.0631,1.063,1.0629,1.0629,1.0685,1.0687,1.0689,0,0,0,0,0,0,0,0,0,0,0,0,0,1.048,1.0482,1.0579,1.058,1.0581,1.0632,1.0632,1.0633,1.0631,1.063,1.0629,1.0628,1.0684,1.0687,1.0689,0,0,0,0,0,0,0,0,0,0,0,0,0,1.0527,1.0483,1.0579,1.0586,1.0587,1.0631,1.0632,1.0633,1.0631,1.063,1.0629,1.0628,1.0683,1.0686,1.069,1.0732,0,0,1.0699,1.0701,0,0,0,0,0,0,0,0,1.0524,1.0531,1.0584,1.0585,1.0587,1.0624,1.0618,1.0666,1.0632,1.0614,1.0629,1.0628,1.0665,1.067,1.0682,1.0734,1.0737,1.07,1.0702,1.0703,1.0704,0,0,0,0,0,0,0,1.0521,1.0529,1.06,1.0585,1.0586,1.0587,1.0592,1.0627,1.0646,1.0616,1.0616,1.0622,1.0666,1.0679,1.0684,1.0738,1.07,1.0703,1.0705,1.0706,1.0828,1.0829,0,0,0,0,0,0,1.0516,1.0526,1.0598,1.0602,1.0552,1.059,1.0596,1.0613,1.0645,1.0649,1.0623,1.0622,1.0674,1.068,1.0686,1.0738,1.0703,1.0706,1.0708,1.0827,1.0828,1.083,0,0,0,0,0,0,1.0514,1.0523,1.0596,1.0564,1.0573,1.0592,1.0612,1.0615,1.0628,1.065,1.0654,1.0633,1.0674,1.0681,1.072,1.074,1.0708,1.0711,1.0825,1.0827,1.0829,1.0843,0,0,0,0,0,0,1.0511,1.0522,1.0537,1.0564,1.0575,1.0629,1.0613,1.0616,1.0633,1.0632,1.0661,1.0664,1.0673,1.0716,1.0724,1.0744,1.0713,1.0824,1.0826,1.0828,1.0841,1.0845,1.0848,0,0,0,0,0,1.0508,1.0539,1.0538,1.0547,1.0595,1.063,1.0637,1.0646,1.0635,1.0651,1.0666,1.0664,1.0736,1.072,1.0729,1.075,1.0822,1.0825,1.0828,1.0839,1.0844,1.0848,0,0,0,0,0,0,1.0515,1.0543,1.0542,1.0583,1.0604,1.063,1.0651,1.0651,1.0676,1.0674,1.0685,1.0691,1.0731,1.0744,1.0725,1.0793,1.0778,1.0783,1.0783,1.0788,1.0792,1.0788,1.0716,0,0,0,0,0,1.0521,1.0548,1.0571,1.0605,1.0615,1.0631,1.0647,1.0652,1.0675,1.0684,1.0702,1.0725,1.0753,1.0771,1.0798,1.0842,1.0849,1.0862,1.0866,1.0869,1.0873,1.0899,1.0905,1.0839,1.0839,1.0839,0,0,1.0535,1.0553,1.0569,1.0607,1.0624,1.0652,1.0639,1.0669,1.069,1.0689,1.0727,1.0741,1.0767,1.081,1.0829,1.0822,1.0893,1.0873,1.0875,1.0878,1.0902,1.0909,1.0914,1.0841,1.0841,1.0841,0,0,1.0574,1.059,1.0621,1.0638,1.0664,1.0674,1.0682,1.0708,1.0717,1.0755,1.0755,1.0781,1.0829,1.0848,1.0864,1.0911,1.0911,1.092,1.0941,1.0965,1.0971,1.0975,1.0993,1.0999,1.0924,1.0924,1.0924,0,1.0588,1.0629,1.0637,1.0667,1.0684,1.0684,1.0716,1.0732,1.0766,1.0778,1.077,1.083,1.0848,1.0895,1.0907,1.0919,1.0929,1.0917,1.0969,1.0974,1.0978,1.0995,1.1002,1.0925,1.0925,1.0924,1.0924,0,1.0645,1.0674,1.0695,1.0727,1.0747,1.0778,1.0791,1.081,1.0813,1.0825,1.0865,1.0886,1.0918,1.0929,1.0933,1.0978,1.0973,1.0966,1.0952,1.0985,1.1002,1.1008,1.0926,1.0926,1.0925,1.0925,0,0,1.069,1.0726,1.0734,1.075,1.0778,1.0801,1.0832,1.0863,1.0879,1.0903,1.093,1.0971,1.0966,1.0984,1.099,1.1011,1.1049,1.1003,1.1004,1.1011,1.1101,1.1106,1.1113,1.1048,1.1049,1.1051,1.1099,0,1.0733,1.0788,1.0796,1.0845,1.0872,1.0873,1.09,1.0921,1.0933,1.0959,1.0972,1.1001,1.0992,1.1003,1.1024,1.104,1.1067,1.1036,1.1075,1.1076,1.1069,1.1121,1.1127,1.1171,1.1105,1.1106,1.1107,0,1.079,1.0815,1.0866,1.0892,1.0904,1.0928,1.0957,1.0981,1.1006,1.1013,1.1034,1.1037,1.1071,1.1054,1.1101,1.108,1.1097,1.1107,1.1109,1.1113,1.1094,1.1129,1.1185,1.1192,1.1117,1.1116,1.1115,0,1.0819,1.0865,1.0902,1.0915,1.0946,1.0963,1.0977,1.1,1.1019,1.1044,1.1057,1.1086,1.1103,1.1126,1.1138,1.1124,1.1185,1.1168,1.1193,1.1193,1.1206,1.1205,1.1267,1.1215,1.1215,1.1215,1.1215,0,1.0866,1.0898,1.0916,1.0938,1.0974,1.0984,1.1019,1.1033,1.1054,1.108,1.1083,1.1108,1.1121,1.1148,1.1158,1.1196,1.1204,1.1211,1.1214,1.1212,1.1211,1.1223,1.1221,1.1217,1.1216,1.1216,1.1216,0,1.0905,1.0918,1.0959,1.0985,1.0992,1.1017,1.104,1.1063,1.1075,1.1108,1.1116,1.1135,1.1168,1.1181,1.1221,1.1228,1.1272,1.1271,1.1263,1.1264,1.1288,1.1286,1.1361,1.1372,1.1312,1.1312,1.1313,0,1.0935,1.0959,1.0988,1.1005,1.102,1.1048,1.1066,1.1077,1.1097,1.1127,1.1146,1.1178,1.1205,1.1256,1.1274,1.1305,1.1306,1.133,1.1311,1.1308,1.1308,1.1306,1.1309,1.1334,1.1335,1.1335,1.1335,0,1.0987,1.0992,1.1018,1.1047,1.1069,1.1093,1.1116,1.113,1.1145,1.1166,1.1199,1.1219,1.126,1.1292,1.1324,1.1339,1.1341,1.1341,1.1349,1.1347,1.1342,1.1346,1.1274,1.134,1.1339,1.1339,1.1339,1.1339,1.1023,1.1045,1.1069,1.1098,1.1117,1.1138,1.1161,1.1176,1.1203,1.1236,1.1241,1.1276,1.1302,1.1344,1.1361,1.1389,1.1384,1.1394,1.1397,1.14,1.1402,1.1337,1.1395,1.1395,1.1395,1.1395,1.1395,0,1.1075,1.1091,1.1118,1.115,1.1174,1.1171,1.1197,1.1217,1.1248,1.1271,1.1297,1.1335,1.1366,1.1387,1.1419,1.1438,1.1439,1.1446,1.1445,1.1449,1.1404,1.1395,1.1444,1.1444,1.1444,1.1444,1.1444,1.1444,1.1106,1.1143,1.1152,1.1199,1.1214,1.1248,1.1263,1.1284,1.1302,1.1344,1.137,1.1383,1.1406,1.1439,1.1469,1.1474,1.1486,1.1494,1.1499,1.1457,1.1452,1.1447,1.1438,1.1496,1.1496,1.1541,1.1541,1.1542]},{"header":{"parameterUnit":"m.s-1","parameterCategory":1,"la1":30.2991,"la2":30.254,"lo1":-89.0895,"lo2":-89.0444,"dy":0.0017,"dx":0.0017,"nx":28,"ny":28,"refTime":"2025-05-17T21:00:00:Z","depth":0,"parameterNumber":3,"parameterNumberName":"V-component_of_WINDS"},"data":[0,0,0,0,0,0,0,0,0,0,0,0,0,0,0,0,0,0,0,0,0,0,0,0,0,0,0,0,0,0,0,0,0,0,0,0,0,0,0,0,0,0,0,0,0,0,0,0,0,0,0,0,0,0,0,0,0,0,2.678,2.678,0,2.6826,2.6826,2.6827,2.6822,2.6821,2.682,2.682,2.6863,2.6865,2.6867,0,0,0,0,0,0,0,0,0,0,0,0,0,2.6684,2.6686,2.678,2.678,2.6781,2.6826,2.6826,2.6827,2.6822,2.6821,2.682,2.6819,2.6863,2.6865,2.6867,0,0,0,0,0,0,0,0,0,0,0,0,0,2.6727,2.6686,2.6779,2.6784,2.6785,2.6825,2.6826,2.6827,2.6822,2.6821,2.682,2.6819,2.6862,2.6864,2.6867,2.6905,0,0,2.6876,2.6877,0,0,0,0,0,0,0,0,2.6725,2.6731,2.6783,2.6784,2.6785,2.6817,2.6808,2.6853,2.6822,2.6808,2.682,2.6819,2.6848,2.6852,2.6863,2.6907,2.6909,2.6876,2.6877,2.6879,2.6879,0,0,0,0,0,0,0,2.6722,2.6729,2.6798,2.6783,2.6785,2.6782,2.6787,2.6817,2.6833,2.6809,2.6809,2.6815,2.6849,2.686,2.6864,2.691,2.6876,2.6878,2.688,2.6881,2.6989,2.699,0,0,0,0,0,0,2.6718,2.6726,2.6796,2.6799,2.6752,2.6785,2.6791,2.6808,2.6833,2.6836,2.6815,2.6814,2.6856,2.6861,2.6865,2.6913,2.6879,2.6881,2.6883,2.6988,2.6989,2.699,0,0,0,0,0,0,2.6716,2.6725,2.6794,2.6763,2.6771,2.6788,2.6807,2.6809,2.6821,2.6838,2.6841,2.6825,2.6856,2.6862,2.6896,2.6914,2.6882,2.6885,2.6986,2.6988,2.699,2.7008,0,0,0,0,0,0,2.6714,2.6724,2.6739,2.6763,2.6773,2.6825,2.6808,2.6811,2.6826,2.6825,2.6847,2.685,2.6855,2.6892,2.6899,2.6918,2.6887,2.6984,2.6987,2.6989,2.7006,2.701,2.7014,0,0,0,0,0,2.671,2.6742,2.674,2.6749,2.6793,2.6826,2.6832,2.6839,2.6828,2.6843,2.6854,2.6849,2.6911,2.6896,2.6903,2.6923,2.6983,2.6986,2.6989,2.7004,2.7009,2.7014,0,0,0,0,0,0,2.6718,2.6745,2.6744,2.6784,2.6803,2.6825,2.6845,2.6844,2.6865,2.6863,2.6869,2.6874,2.6909,2.6919,2.6901,2.6962,2.6946,2.695,2.6954,2.6959,2.6963,2.6961,2.6889,0,0,0,0,0,2.6725,2.6751,2.6772,2.6805,2.6815,2.6829,2.6843,2.6847,2.6866,2.6874,2.6887,2.6906,2.6929,2.6945,2.6967,2.7006,2.7012,2.7024,2.7028,2.7031,2.7035,2.7058,2.7064,2.6999,2.6999,2.6999,0,0,2.6738,2.6756,2.6772,2.6808,2.6823,2.6849,2.6835,2.6863,2.6882,2.6878,2.6912,2.6922,2.6943,2.698,2.6997,2.699,2.7054,2.7035,2.7037,2.704,2.7061,2.7067,2.7073,2.7001,2.7001,2.7001,0,0,2.6777,2.6793,2.6823,2.6839,2.6863,2.6872,2.6879,2.6902,2.6909,2.6943,2.6941,2.6963,2.7003,2.7019,2.7031,2.7076,2.7073,2.7083,2.7105,2.7126,2.7132,2.7136,2.7153,2.7159,2.7087,2.7087,2.7087,0,2.6791,2.6831,2.6838,2.6867,2.6883,2.6881,2.6912,2.6926,2.6956,2.6966,2.6957,2.7009,2.7022,2.7064,2.7075,2.7085,2.7093,2.7081,2.713,2.7135,2.7139,2.7156,2.7162,2.7088,2.7088,2.7088,2.7088,0,2.6847,2.6875,2.6896,2.6927,2.6945,2.6974,2.6985,2.7002,2.7004,2.7013,2.7048,2.7065,2.7091,2.7101,2.7102,2.7142,2.7137,2.7129,2.7113,2.7147,2.7162,2.7168,2.709,2.7089,2.7089,2.7089,0,0,2.6892,2.6927,2.6935,2.695,2.6976,2.6997,2.7026,2.7053,2.7068,2.7088,2.7112,2.7147,2.714,2.7155,2.7158,2.7177,2.7212,2.7166,2.7167,2.7176,2.7259,2.7266,2.7273,2.721,2.7211,2.7212,2.7258,0,2.6935,2.6988,2.6996,2.7042,2.7068,2.7067,2.7092,2.7111,2.712,2.7143,2.7152,2.7177,2.7166,2.7175,2.7193,2.7204,2.7229,2.7201,2.7233,2.7234,2.7229,2.7281,2.7288,2.7331,2.7264,2.7265,2.7265,0,2.6991,2.7015,2.7065,2.7089,2.71,2.7123,2.7149,2.717,2.7191,2.7196,2.7213,2.7214,2.7243,2.7225,2.7266,2.7246,2.7259,2.7266,2.7268,2.7272,2.7253,2.7288,2.7344,2.7351,2.7275,2.7274,2.7273,0,2.7021,2.7065,2.7101,2.7113,2.7141,2.7158,2.717,2.7189,2.7206,2.7227,2.7238,2.7262,2.7276,2.7294,2.7302,2.7288,2.7342,2.7324,2.7347,2.7347,2.736,2.7359,2.7421,2.7366,2.7366,2.7366,2.7366,0,2.7068,2.7099,2.7115,2.7137,2.7172,2.7179,2.7213,2.7224,2.7242,2.7265,2.7264,2.7287,2.7294,2.7317,2.7322,2.7355,2.7361,2.7366,2.7367,2.7367,2.7367,2.7377,2.7375,2.7367,2.7367,2.7367,2.7366,0,2.7108,2.712,2.7159,2.7183,2.719,2.7214,2.7234,2.7255,2.7264,2.7294,2.7302,2.7316,2.7343,2.7352,2.7383,2.7387,2.7426,2.7424,2.742,2.7421,2.7444,2.7442,2.7515,2.7526,2.7463,2.7463,2.7464,0,2.7138,2.7162,2.7189,2.7206,2.7219,2.7246,2.7263,2.7271,2.7288,2.7314,2.7332,2.7359,2.7382,2.7425,2.7437,2.7462,2.7461,2.7485,2.7465,2.7464,2.7463,2.7463,2.7465,2.7489,2.749,2.749,2.7491,0,2.7191,2.7196,2.7221,2.7249,2.727,2.7291,2.7312,2.7325,2.7336,2.7356,2.7385,2.7402,2.7436,2.7463,2.7488,2.75,2.7497,2.7497,2.7504,2.7505,2.7502,2.7505,2.7432,2.7496,2.7495,2.7495,2.7495,2.7494,2.7227,2.7249,2.7272,2.7301,2.7318,2.7337,2.7359,2.7371,2.7396,2.7425,2.7428,2.7459,2.7479,2.7513,2.7526,2.7549,2.7543,2.7552,2.7555,2.7558,2.756,2.7497,2.7554,2.7554,2.7553,2.7553,2.7553,0,2.7281,2.7296,2.7322,2.7353,2.7375,2.7372,2.7395,2.7414,2.7442,2.7461,2.7484,2.7517,2.7543,2.7558,2.7584,2.76,2.76,2.7607,2.7607,2.761,2.7564,2.7556,2.7607,2.7607,2.7607,2.7607,2.7607,2.7607,2.7312,2.7349,2.7357,2.7402,2.7417,2.7449,2.7462,2.7481,2.7496,2.7534,2.7557,2.7567,2.7584,2.7612,2.7636,2.7639,2.7649,2.7658,2.7661,2.7618,2.7613,2.7607,2.76,2.7659,2.766,2.7704,2.7705,2.7705]}]]